Location: Chomutov
(50.4500°N, 13.4333°E)
Time: 12:55:44
(UTC+02:00)

MOZHAYETS 4 - Visible Passes

Search period start: 20 September 2021 00:00
Search period end: 30 September 2021 00:00
Orbit: 662 x 679 km, 98.2° (Epoch: 20 September)

Date Brightness Start Highest point End Pass type
(mag) Time Alt. Az. Time Alt. Az. Time Alt. Az.
20 Sep 10.2 01:54:44 18° NNE 01:54:44 18° NNE 01:56:39 10° N visible
20 Sep 9.7 03:32:57 20° NNW 03:32:57 20° NNW 03:34:29 10° NNW visible
21 Sep 9.9 02:28:07 23° NNE 02:28:07 23° NNE 02:30:03 10° N visible
21 Sep 10.0 04:06:21 13° NW 04:06:21 13° NW 04:07:01 10° NNW visible
22 Sep 10.7 01:23:17 12° NE 01:23:17 12° NE 01:24:12 10° NNE visible
22 Sep 9.8 03:01:31 22° N 03:01:31 22° N 03:03:09 10° NNW visible
23 Sep 10.4 01:56:41 17° NNE 01:56:41 17° NNE 01:58:13 10° N visible
23 Sep 9.9 03:34:54 17° NNW 03:34:54 17° NNW 03:35:59 10° NNW visible
24 Sep 10.1 02:30:04 20° N 02:30:04 20° N 02:31:36 10° N visible
24 Sep 10.2 04:08:18 11° NW 04:08:18 11° NW 04:08:31 10° NW visible
25 Sep 10.7 01:25:14 11° NNE 01:25:14 11° NNE 01:25:49 10° NNE visible
25 Sep 10.0 03:03:28 18° N 03:03:28 18° N 03:04:41 10° NNW visible
26 Sep 10.5 01:58:38 15° NNE 01:58:38 15° NNE 01:59:46 10° N visible
26 Sep 10.2 03:36:52 14° NNW 03:36:52 14° NNW 03:37:30 10° NNW visible
27 Sep 10.3 02:32:02 17° N 02:32:02 17° N 02:33:08 10° N visible
28 Sep 10.8 01:27:12 11° NNE 01:27:12 11° NNE 01:27:25 10° NNE visible
28 Sep 10.3 03:05:26 15° NNW 03:05:26 15° NNW 03:06:13 10° NNW visible
29 Sep 10.7 02:00:36 13° NNE 02:00:36 13° NNE 02:01:19 10° N visible
29 Sep 10.4 03:38:49 11° NNW 03:38:49 11° NNW 03:39:02 10° NNW visible
